Theta_e
337 340 342 343 344 343 343 343 342 342 342 340 339 338 338 338 338 336 334 333 333 332 332 332 332 332 332 332 331 331 331 330 329 328 327 325 324 323 322 322 320 319 318 316 315 314 313 311 310 310 313 317
332 336 338 340 340 340 340 340 341 340 340 339 338 337 337 336 335 335 334 333 332 331 331 331 331 331 331 331 331 331 330 329 328 327 326 325 323 323 322 320 319 317 316 316 314 312 310 309 308 308 312 315
339 329 333 335 336 337 337 338 338 338 337 335 335 335 333 331 330 329 330 331 332 331 331 330 328 330 330 330 331 330 329 329 328 326 325 324 323 322 320 319 318 316 314 312 311 309 307 305 305 306 311 313
340 332 327 331 333 334 335 335 336 335 332 330 329 329 328 325 328 325 328 323 328 327 330 328 326 328 329 329 330 329 329 328 327 326 324 323 322 321 319 318 316 314 313 311 309 307 305 304 305 306 308 311
339 338 326 328 327 329 331 332 332 332 326 322 322 324 320 321 330 331 330 331 330 322 329 322 321 327 329 329 329 328 328 327 326 325 324 322 321 319 317 315 313 312 311 309 307 305 303 304 305 305 307 308
338 339 331 337 337 337 333 328 326 331 335 325 334 322 327 331 330 329 329 329 324 328 327 325 319 324 329 328 327 326 326 326 325 325 323 322 320 318 316 312 311 308 307 306 305 303 302 305 304 305 305 306
337 336 336 336 337 336 329 332 333 334 333 333 333 332 331 329 329 329 329 328 326 327 321 324 319 324 327 327 326 325 324 324 324 324 322 320 317 314 309 309 309 307 305 302 300 302 306 304 304 305 305 305
334 335 335 335 335 334 334 335 334 335 334 333 333 332 331 329 329 329 327 318 315 319 326 325 317 321 322 323 322 322 322 322 321 320 318 314 311 306 308 306 304 304 304 303 304 304 303 304 305 305 304 303
332 334 333 334 333 333 333 332 333 333 333 333 333 331 330 329 327 327 325 325 325 325 324 325 325 325 325 324 323 318 321 319 319 317 314 308 304 304 305 305 304 304 303 303 303 303 302 303 304 303 303 303
332 331 332 332 332 332 332 332 331 332 331 331 331 329 329 326 325 325 324 324 323 324 323 323 323 323 323 322 322 320 321 319 317 314 308 304 304 303 304 304 304 304 303 303 302 302 303 302 303 303 302 302
331 330 331 332 331 331 330 330 331 329 329 329 328 328 326 325 324 323 322 322 322 322 323 323 323 323 322 322 320 319 317 315 312 307 303 303 303 303 303 303 304 303 304 304 303 302 303 302 302 302 302 302
329 330 330 331 330 330 329 329 329 328 328 327 325 325 325 324 323 321 320 320 320 321 321 321 321 321 319 318 316 316 314 311 307 304 303 304 303 303 303 303 302 301 302 302 303 303 303 303 302 302 301 301
327 329 329 330 329 328 326 328 328 328 327 324 324 323 322 322 321 320 319 319 319 319 318 319 318 317 316 315 313 312 309 308 305 302 302 302 301 302 301 301 302 301 301 301 302 302 302 302 302 301 301 302
326 326 327 328 328 328 327 327 328 328 325 324 322 320 320 320 321 319 318 317 317 316 316 316 316 315 314 312 310 309 307 305 303 301 301 302 302 302 302 301 301 300 301 300 301 301 301 301 300 301 301 301
325 326 325 326 327 328 327 326 326 325 325 323 320 319 318 319 319 318 317 316 315 314 315 314 313 313 312 310 308 307 305 303 303 302 301 302 300 300 300 300 300 300 300 300 300 300 301 300 300 300 300 300
324 325 325 325 325 325 326 326 325 324 324 320 320 318 316 317 317 316 316 315 314 313 313 312 312 312 310 309 306 305 304 302 303 302 303 303 302 302 302 300 299 301 299 299 299 300 300 300 300 299 300 300
323 324 324 324 324 324 325 324 324 323 322 321 320 316 315 315 315 314 314 313 312 311 311 310 310 309 308 308 305 303 303 302 302 301 300 300 301 300 301 299 299 300 300 299 299 299 299 299 299 299 300 300
322 323 324 324 324 323 323 323 322 322 322 320 318 316 314 313 313 312 313 312 311 310 309 308 308 308 306 305 304 302 302 300 300 299 299 299 298 298 298 298 298 297 298 298 298 298 298 299 298 299 299 299
322 322 322 322 323 322 322 322 321 321 320 318 317 316 314 312 311 311 311 310 309 308 307 306 306 305 305 304 303 301 300 299 299 300 300 298 297 297 298 298 298 298 298 297 297 298 297 298 298 299 299 299
321 321 322 322 318 322 322 320 320 320 319 318 316 314 313 311 310 310 309 308 308 306 305 304 304 303 303 302 301 300 300 300 299 299 300 299 299 296 297 298 297 298 298 298 298 297 297 297 297 298 298 298
320 320 320 320 320 321 320 319 318 318 318 317 315 313 312 310 309 308 308 307 306 306 304 303 302 302 302 301 300 300 300 299 300 300 299 298 299 298 296 297 297 296 297 297 297 297 297 298 297 298 297 297
318 319 319 319 319 318 317 318 318 317 316 315 314 312 310 310 308 307 307 306 305 304 304 303 302 301 301 300 300 300 299 298 299 299 298 297 298 298 297 295 296 295 296 297 296 296 296 296 297 297 297 297
317 317 317 317 317 316 315 316 316 315 314 314 313 311 310 308 307 306 306 305 304 303 302 301 301 301 300 300 299 299 298 299 299 299 298 297 296 297 298 296 296 296 297 297 296 295 295 296 296 296 296 296
314 315 314 313 313 313 313 313 312 313 312 312 311 310 308 307 307 305 305 304 304 303 301 301 300 299 300 299 299 298 298 297 297 297 297 297 296 295 296 297 298 297 295 295 294 294 294 295 295 295 295 296
312 311 311 312 311 311 312 311 311 310 311 311 310 309 308 307 305 305 304 303 303 302 300 300 300 299 299 299 298 298 298 299 298 298 297 297 296 295 293 294 296 297 296 294 293 293 293 293 294 293 294 293
310 311 311 311 311 311 311 310 308 308 309 309 309 307 307 306 305 304 303 302 302 301 301 300 299 298 297 297 298 298 299 299 298 298 297 297 295 296 294 293 295 296 295 293 292 291 290 291 291 292 292 292
308 310 311 311 310 310 309 310 309 309 308 307 306 306 306 305 304 303 303 302 301 301 301 300 298 297 297 297 298 297 298 298 297 297 296 296 294 293 295 295 295 296 297 293 296 295 292 290 289 290 290 292
308 309 310 310 308 308 308 306 306 306 305 305 304 304 304 304 304 303 302 302 301 301 301 300 298 297 297 297 298 297 297 297 297 296 296 295 295 294 292 294 292 295 296 298 296 291 292 293 292 290 289 289
307 306 306 306 305 305 305 303 303 303 303 303 303 303 302 302 303 303 302 302 301 300 300 300 299 298 297 297 297 297 297 297 296 296 296 296 295 294 292 292 292 293 296 296 299 296 292 289 289 292 294 291
305 304 304 303 302 300 300 300 300 300 301 301 301 301 302 302 302 302 302 302 301 300 299 300 299 299 297 297 296 297 297 297 297 297 296 296 295 295 295 294 293 291 293 295 296 295 297 299 295 295 293 292
304 304 303 303 302 302 301 300 301 302 302 302 301 302 301 301 301 301 301 301 301 300 299 300 299 299 298 297 297 296 296 296 296 296 296 296 295 295 296 296 293 293 291 293 292 294 295 296 291 298 293 291
Wind_Speed
8 9 10 10 10 11 10 10 9 9 7 8 8 8 7 8 7 9 9 10 10 10 10 10 10 9 9 10 10 9 10 10 10 10 10 10 10 10 10 11 11 11 11 11 10 10 9 8 8 6 5 3
8 8 9 9 9 9 8 7 8 8 8 8 9 8 8 7 6 8 9 9 11 11 11 11 10 10 10 10 10 10 10 10 10 10 10 10 10 11 11 11 11 11 11 10 10 10 9 8 7 6 4 4
9 10 9 9 9 9 9 8 9 8 9 8 9 7 7 7 8 7 8 7 8 9 9 8 7 9 11 11 11 11 10 10 11 11 11 11 11 11 11 11 11 11 11 10 10 9 9 7 6 3 2 4
12 10 11 9 9 9 9 9 10 10 9 9 9 7 7 8 8 7 6 6 7 8 8 7 9 9 9 11 11 11 11 11 11 11 10 10 11 11 11 11 11 11 10 10 9 8 7 4 1 3 4 4
9 9 10 8 9 10 9 9 10 9 9 9 8 9 8 9 8 9 9 7 9 7 8 8 7 7 9 11 11 11 11 11 11 10 10 11 11 11 11 11 11 10 9 9 8 7 5 2 3 4 3 3
6 7 9 13 11 9 9 9 9 8 9 10 9 9 8 8 9 8 9 9 11 9 9 8 6 7 9 11 11 11 11 11 11 11 11 11 11 11 11 10 5 6 8 8 7 5 0 1 3 3 3 3
7 10 10 12 12 10 10 10 10 11 10 10 11 10 10 10 9 10 8 8 8 7 9 9 7 6 8 10 9 10 10 10 11 11 11 10 10 9 8 3 3 4 3 4 3 2 1 3 3 3 3 3
9 10 10 10 12 13 12 13 10 13 11 10 11 10 10 10 10 10 8 6 7 5 8 6 6 6 7 8 8 9 9 10 9 11 10 10 10 7 3 3 3 3 3 3 2 1 2 2 3 2 2 2
11 10 10 11 12 13 12 13 13 12 9 9 9 10 9 10 8 8 8 8 8 9 8 8 9 8 9 8 8 10 7 7 8 7 6 5 5 4 3 3 3 3 3 3 2 2 2 2 2 2 2 2
11 11 11 11 13 13 12 13 13 10 9 9 9 9 10 8 8 9 8 9 9 10 9 9 9 9 9 9 8 10 7 6 7 5 5 5 4 3 3 3 3 2 2 3 2 2 2 2 2 2 1 2
11 11 11 11 12 13 14 13 11 9 9 9 10 10 9 9 9 10 9 9 10 10 9 9 9 9 8 8 8 8 6 6 5 5 5 5 4 3 3 3 2 2 2 2 2 3 2 2 2 1 1 1
15 11 12 12 11 12 12 11 10 10 10 9 9 10 9 10 10 10 10 10 10 10 9 10 9 8 7 7 7 6 6 6 5 5 5 5 4 4 4 4 3 3 3 2 2 3 2 2 1 1 1 1
15 12 12 12 11 13 12 11 11 11 10 9 9 10 10 11 11 10 10 10 10 9 10 9 8 7 8 7 6 6 6 6 6 5 5 5 5 5 4 4 3 3 3 2 2 2 2 1 2 2 1 1
14 14 12 13 13 12 11 12 11 11 9 10 9 9 10 11 11 11 11 10 10 10 11 9 8 8 7 7 6 6 6 6 6 6 5 5 5 5 5 4 3 3 3 2 2 2 2 1 1 1 1 1
15 14 14 14 13 11 12 12 11 10 10 9 10 10 11 11 12 11 11 10 11 10 9 8 8 9 7 7 7 7 6 6 5 5 5 6 6 5 5 4 4 3 3 3 2 2 2 1 1 1 1 1
15 14 14 16 16 14 12 12 11 11 10 10 10 10 11 11 11 11 11 11 10 11 10 9 9 9 8 8 7 7 6 6 5 5 4 5 4 5 4 4 4 3 3 3 3 2 2 2 2 2 2 2
14 13 14 15 15 14 16 13 12 12 11 10 10 9 11 11 12 11 11 10 11 10 9 9 9 8 8 8 7 7 7 7 5 5 5 4 4 4 4 4 4 2 2 3 3 2 2 2 2 2 2 2
13 14 13 13 14 14 15 13 12 12 11 10 10 10 11 11 11 11 11 10 10 10 9 9 9 9 8 7 8 6 7 7 6 6 6 6 5 5 5 5 4 4 4 3 3 2 2 2 2 2 2 2
15 13 13 12 12 13 16 12 11 11 10 10 10 10 10 12 11 11 11 10 10 11 10 10 10 9 8 7 8 7 7 7 7 6 7 7 7 6 5 5 4 4 4 4 4 3 3 2 2 2 2 3
14 13 13 11 11 11 12 9 10 10 10 10 10 10 10 11 10 11 11 10 10 10 10 9 10 9 8 9 8 7 7 7 7 7 6 6 7 7 6 6 5 4 4 4 3 3 2 2 3 3 3 3
14 12 11 11 11 11 10 10 10 10 9 10 10 9 9 11 11 11 11 11 11 9 9 9 9 9 9 9 8 8 7 7 7 7 6 6 6 6 7 7 7 5 4 3 3 2 2 2 3 3 3 3
13 12 11 9 9 9 9 10 9 9 9 10 10 9 10 10 11 11 12 11 11 9 9 9 8 8 9 9 8 7 8 8 6 7 7 7 6 6 7 7 7 7 4 4 3 3 2 2 2 2 3 3
10 10 9 8 8 9 10 9 9 9 9 9 9 10 10 10 11 11 12 12 11 10 9 9 8 7 10 9 8 8 8 7 7 7 7 8 7 4 5 6 6 6 5 5 3 3 3 2 1 1 2 3
9 9 10 13 10 9 10 10 9 9 10 9 10 10 10 10 11 11 11 12 12 12 10 10 9 9 9 10 9 9 9 9 9 10 10 9 9 8 4 1 5 6 7 6 5 4 3 2 2 2 2 2
11 11 11 10 11 12 10 11 11 10 10 10 10 10 10 10 11 11 12 12 12 12 11 10 9 9 9 9 9 9 10 10 10 9 9 8 7 9 8 6 5 7 7 8 5 4 3 3 2 2 1 3
10 11 11 11 12 11 10 10 11 11 10 11 9 10 11 10 11 11 11 11 12 11 12 11 9 9 10 10 9 9 7 8 8 9 9 8 7 7 9 7 8 8 9 7 7 7 5 3 3 3 2 3
10 10 9 9 7 9 8 7 8 8 8 8 9 9 10 10 11 11 10 11 11 11 11 11 10 10 10 11 10 9 9 9 10 10 11 12 10 9 7 6 7 10 11 7 7 6 6 5 5 4 4 5
8 8 7 7 3 5 6 5 6 6 5 7 8 9 9 9 10 11 11 12 12 10 11 12 11 10 10 12 11 11 11 11 11 10 10 11 10 10 9 7 9 9 9 4 10 7 6 5 5 3 8 8
7 6 6 6 3 3 4 1 4 7 9 8 8 8 9 11 10 12 11 12 13 12 13 12 11 12 11 12 11 11 10 11 12 12 11 12 11 13 12 11 9 10 9 8 5 3 5 2 3 6 4 9
8 7 8 8 8 9 8 9 10 11 11 10 11 11 8 9 11 11 11 11 13 13 12 12 12 11 11 11 11 11 11 10 9 11 12 13 12 13 12 10 9 10 8 7 6 6 4 2 2 3 6 7
8 8 8 10 10 10 10 10 9 8 7 8 9 8 10 9 10 12 11 11 11 12 12 11 12 12 11 11 11 10 10 10 12 11 12 11 12 11 11 10 10 11 11 7 6 5 4 3 2 3 7 6
Wind_Direction
202 203 202 200 205 207 212 203 204 208 205 193 204 222 227 211 195 163 176 184 189 195 197 197 195 190 184 179 179 173 159 150 146 139 130 127 123 118 114 110 105 100 93 90 86 81 74 64 55 33 345 89
213 210 209 205 207 215 215 213 210 212 209 200 202 207 211 199 162 162 174 186 196 194 196 196 193 187 184 182 176 165 158 153 145 138 132 129 125 120 114 110 105 100 95 90 86 79 74 68 57 42 4 80
199 210 208 208 205 207 206 208 206 207 213 198 190 200 180 148 147 152 165 183 194 194 193 193 184 187 185 181 172 164 158 152 144 139 135 131 126 120 115 111 105 101 96 93 88 82 79 75 62 22 61 67
205 194 206 202 199 201 204 202 200 203 197 183 177 167 145 138 139 147 164 175 192 199 191 177 190 184 189 179 171 164 157 150 145 141 139 132 126 121 116 109 103 101 100 97 94 92 90 82 231 89 75 71
204 197 188 197 196 198 197 196 193 192 175 163 154 151 142 140 174 186 199 183 203 182 192 170 185 181 187 179 169 161 156 151 148 144 139 134 127 123 116 106 97 93 95 94 94 95 94 207 101 77 78 77
194 198 189 207 202 201 193 193 184 177 187 173 176 150 150 182 194 200 199 198 203 191 189 167 176 191 181 176 161 159 157 153 150 145 140 134 127 120 116 115 115 98 79 78 87 83 254 113 78 81 80 78
203 204 201 205 205 205 198 196 191 197 188 188 187 177 183 195 200 199 193 198 188 200 174 175 170 182 173 166 152 161 156 155 151 145 140 131 125 119 116 123 115 119 127 107 116 175 121 76 70 81 83 92
205 204 204 204 207 210 205 206 193 203 188 190 187 174 187 193 196 189 195 104 112 121 165 151 171 169 145 142 148 153 154 154 150 142 130 121 120 127 155 138 133 133 144 148 147 105 100 92 95 90 98 89
204 202 205 206 209 209 206 208 202 201 184 185 178 175 187 192 175 180 196 179 179 190 185 181 182 179 181 175 173 163 168 166 151 151 143 136 156 158 150 151 144 149 142 143 140 116 100 110 111 109 96 102
203 200 204 204 209 206 206 207 203 194 187 182 178 179 186 174 171 183 191 182 185 190 188 184 186 186 186 181 175 179 174 166 163 159 153 156 164 158 157 151 150 150 147 143 139 121 96 99 107 95 86 100
203 201 204 204 205 203 207 207 197 191 191 188 178 178 174 179 185 189 192 186 187 188 186 185 185 183 180 176 173 181 176 163 162 163 157 161 159 153 146 140 138 132 122 118 123 116 111 94 97 92 88 73
213 203 202 206 202 201 201 197 197 198 193 180 176 179 182 186 188 190 193 190 188 189 188 190 186 182 178 178 175 177 176 165 167 166 162 155 147 149 149 146 144 139 133 117 113 115 110 108 104 96 89 75
214 208 202 204 202 202 198 200 201 198 185 179 183 181 179 184 189 193 194 191 189 187 189 187 179 178 180 177 174 173 174 173 171 170 164 158 160 159 156 151 150 138 128 133 110 105 108 105 84 87 91 89
211 210 201 206 206 202 196 202 201 192 186 188 182 182 183 185 192 194 193 190 188 187 187 183 176 179 180 179 175 178 180 179 178 171 165 162 160 158 156 156 142 149 132 115 107 101 112 101 111 99 100 104
212 209 210 212 212 202 202 200 197 193 193 190 187 186 182 185 193 192 193 190 187 186 185 181 178 185 178 181 179 182 181 175 180 170 169 167 164 163 160 149 144 156 141 136 128 115 129 129 130 125 121 129
212 210 208 212 215 211 208 197 197 197 196 192 191 184 179 188 192 192 191 188 183 186 184 183 182 184 181 187 178 183 178 171 173 167 151 145 145 145 148 140 146 149 155 150 141 137 136 149 153 153 148 147
212 211 208 208 211 210 211 203 193 198 197 194 190 183 183 191 192 191 192 187 182 182 183 181 180 184 186 186 178 178 168 161 158 153 147 143 144 143 141 143 140 138 153 146 141 153 148 156 158 152 162 148
207 209 208 207 208 210 210 207 192 199 197 192 190 185 186 190 191 192 195 186 181 182 183 182 185 186 185 184 171 167 162 170 171 167 160 154 160 157 163 159 155 165 166 154 148 156 154 173 161 163 162 152
208 205 205 202 201 208 211 201 195 198 196 192 193 188 190 191 191 191 193 185 179 185 187 184 186 187 185 174 168 172 177 175 173 169 165 162 165 159 166 162 158 173 170 162 162 157 166 162 157 168 149 146
206 203 203 203 198 203 198 195 197 198 198 196 193 192 190 188 189 190 191 185 184 186 190 187 187 185 178 166 173 178 173 177 173 168 164 168 167 161 170 164 167 178 167 161 152 150 157 147 171 163 156 152
206 208 207 205 204 206 195 199 199 201 201 197 195 192 191 184 187 188 190 189 189 191 188 188 187 182 172 168 178 176 173 179 175 165 162 165 175 175 165 171 168 173 167 148 133 133 137 150 174 164 157 161
203 206 206 205 204 203 205 203 203 204 200 201 196 192 194 181 184 189 190 189 189 196 191 190 187 177 166 171 179 174 174 180 169 169 171 163 171 172 167 176 174 172 154 128 134 129 131 152 174 145 150 145
203 205 206 208 205 206 210 208 209 207 205 203 197 198 192 179 185 187 187 186 187 194 189 190 187 175 170 175 178 173 175 172 168 170 178 168 161 165 175 178 176 166 138 125 115 117 116 118 113 132 132 158
196 199 205 213 207 211 210 209 208 208 211 202 204 199 190 185 187 187 187 186 187 193 190 190 189 179 170 180 178 177 180 178 180 178 170 171 163 163 155 164 151 138 136 123 111 106 99 90 87 108 152 176
194 196 201 207 210 213 205 206 206 206 208 208 206 197 191 187 189 190 186 187 186 194 192 193 184 174 173 180 184 187 191 183 176 172 168 159 161 164 167 177 165 156 147 139 127 118 121 118 106 109 160 174
200 204 202 198 206 206 206 201 201 207 204 206 201 195 191 193 191 191 190 188 191 193 192 190 179 176 176 183 189 193 188 173 159 158 165 159 159 179 178 176 175 167 164 181 176 160 157 153 158 166 193 188
201 203 205 204 207 200 205 210 214 214 212 202 201 195 194 195 193 194 193 190 193 195 194 188 180 183 180 185 184 184 184 177 174 177 173 173 173 167 186 181 176 183 202 187 179 163 147 178 174 179 212 204
202 198 191 186 178 180 204 214 198 201 200 200 200 206 199 201 198 193 196 194 193 194 193 190 187 181 183 187 187 189 185 183 184 176 178 179 183 169 169 186 187 203 209 226 154 177 218 170 203 190 208 193
195 170 170 175 141 151 195 214 208 209 224 214 211 212 204 207 199 199 200 196 195 197 197 194 189 186 187 186 188 190 189 186 188 182 183 179 178 183 183 183 182 198 208 229 264 229 145 144 213 237 116 163
197 205 202 190 193 204 207 215 210 212 211 203 204 207 207 204 203 203 205 203 199 198 198 197 194 190 186 188 188 193 195 186 179 183 182 185 187 190 197 180 173 186 206 226 237 263 315 343 267 175 143 170
187 195 205 206 208 211 208 213 215 209 203 204 201 197 201 199 196 204 207 208 204 201 201 200 196 194 193 191 192 191 192 189 189 186 187 181 192 195 190 189 189 184 188 199 249 239 245 270 224 287 145 201